Retour au catalogue

JCSAT 6

ActifCommunicationsGEO
NORAD 25630·PAYLOAD·🇯🇵 Japan

Lancé Feb 16, 1999 depuis Cape Canaveral Space Force Station

Loading…

TLE

FraisSource: Space-Track

Époque: Sep 14, 2026, 08:25 UTC

1 25630U 99006A   26257.35081836 -.00000183  00000-0  00000-0 0  9999
2 25630   9.8878  55.0147 0021783  53.6063 318.2894  0.98811563 17097

Suivez JCSAT 6 en temps réel avec AllMySat

Download on the App Store